Location: Newark
(23.3970°S, 47.6010°W)
Time: 21:31:17
(UTC+00:00)

Transit 4A - Visible Passes

Search period start: 25 February 2020 00:00
Search period end: 06 March 2020 00:00
Orbit: 872 x 973 km, 66.8° (Epoch: 25 February)

Date Brightness Start Highest point End Pass type
(mag) Time Alt. Az. Time Alt. Az. Time Alt. Az.
25 Feb 10.7 01:39:51 10° WSW 01:40:13 11° WSW 01:40:13 11° WSW visible
26 Feb 8.4 00:01:17 10° SSW 00:06:09 53° S 00:06:09 53° S visible
26 Feb 9.7 22:27:09 10° SSE 22:30:03 13° SE 22:32:09 11° ESE visible
27 Feb 8.4 00:10:37 10° SSW 00:15:42 57° SW 00:15:42 57° SW visible
27 Feb 9.2 22:34:58 10° S 22:39:40 21° ESE 22:41:47 18° E visible
28 Feb 8.9 00:20:13 10° SW 00:25:21 42° W 00:25:21 42° W visible
28 Feb 8.7 22:43:32 10° S 22:49:11 33° ESE 22:51:32 26° E visible
29 Feb 9.6 00:30:11 10° SW 00:35:05 27° WNW 00:35:05 27° WNW visible
29 Feb 8.1 22:52:26 10° SSW 22:58:37 53° ESE 23:01:23 31° NE visible
01 Mar 10.2 00:40:50 10° WSW 00:44:23 16° WNW 00:44:58 16° WNW visible
01 Mar 7.8 23:01:37 10° SSW 23:07:57 85° ESE 23:11:24 28° NNE visible
02 Mar 8.4 23:11:03 10° SSW 23:17:13 60° WNW 23:21:33 19° N visible
03 Mar 9.2 23:20:46 10° SW 23:26:25 36° WNW 23:31:55 10° N visible
04 Mar 10.0 23:30:55 10° WSW 23:35:33 22° WNW 23:40:05 10° NNW visible
05 Mar 8.0 21:52:44 10° SSW 21:58:58 63° ESE 22:05:00 10° NNE visible
05 Mar 10.6 23:42:06 10° WSW 23:44:39 13° WNW 23:47:10 10° NW visible
